Weather Roundup
Issued by NWS Chicago, IL

Home | Current Version | Previous Version | Text Only | Print | Product List | Glossary On
Versions: 1 2 3 4 5 6 7 8 9 10 11 12 13 14 15 16 17 18 19 20 21 22 23 24 25 26 27 28 29 30 31 32 33 34 35 36 37 38 39 40 41 42 43 44 45 46 47 48 49 50
000
NZUS59 KLOT 281700
HRRLOT

CHICAGO AREA WEATHER ROUNDUP
NATIONAL WEATHER SERVICE CHICAGO/ROMEOVILLE IL
1100 AM CST FRI NOV 28 2014

NOTE: "FAIR" INDICATES FEW OR NO CLOUDS BELOW 12,000 FEET WITH NO
SIGNIFICANT WEATHER AND/OR OBSTRUCTIONS TO VISIBILITY.

* THESE STATIONS ARE NOT UNDER NWS QUALITY CONTROL. THEY ALSO MAY NOT
  REPORT WEATHER SUCH AS PRECIPITATION OR FOG.

ILZ005-006-012>014-019>023-281800-
NORTHEAST ILLINOIS

CITY           SKY/WX    TMP DP  RH WIND       PRES   REMARKS
OHARE          PTSUNNY   25  16  68 S13       30.16F WCI  14
MIDWAY         PTSUNNY   28  15  58 S14G23    30.18F WCI  17
AURORA         MOSUNNY   25  14  63 SE16      30.14F WCI  12
WAUKEGAN       PTSUNNY   23  14  68 SE10      30.14F WCI  12
DUPAGE AIRPORT SUNNY     24  13  62 SE13      30.14F WCI  12
WHEELING       MOSUNNY   24  16  71 S15       30.18F WCI  11
NORTHERLY IS     N/A     27  17  66 S9          N/A  WCI  18
$$

WIZ051-052-058>065-066-070>072-281800-
SOUTHEAST WISCONSIN

CITY           SKY/WX    TMP DP  RH WIND       PRES   REMARKS
MILWAUKEE      CLOUDY    22  14  71 S10       30.15F WCI  11
KENOSHA*       CLOUDY    23  14  68 S10       30.14F WCI  12
RACINE*        CLOUDY    24  13  62 S13       30.16F WCI  12
WAUKESHA       PTSUNNY   19  12  73 SE12      30.14F WCI   7
$$

INZ001>003-010>013-019-020-281800-
NORTHWEST INDIANA

CITY           SKY/WX    TMP DP  RH WIND       PRES   REMARKS
GARY*          PTSUNNY   28  16  59 S17       30.21F WCI  16
MICHIGAN CITY* NOT AVBL
RENSSELAER*    NOT AVBL
$$

LMZ740>746-281800-
SOUTHERN LAKE MICHIGAN

STATION/POSITION TIME  SKY/WX   TEMP WIND        PRES    VSBY
                                AIR  DIR/SP/G
                 (UTC)          (F)  (DEG/KT/KT) (MB)    (MI)
HARRISON CRIB    1600            23  180/ 19/ 24   N/A
BURNHAM HARBOR   1700            26  170/ 10/ 15   N/A
CALUMET HARBOR   1600            25  150/ 12/ 16 1021.7F
BURNS HARBOR     NOT AVBL
MICHIGAN CITY    1600            23  160/ 14/ 19   N/A
$$

ABBREVIATIONS USED IN REMARKS
   TC - TEMPERATURE IN CELSIUS
  WCI - WIND CHILL INDEX
   HX - HEAT INDEX
  VSB - VISIBILITY
$$



USA.gov is the U.S. government's official web portal to all federal, state and local government web resources and services.